Weather History for KLVM - February, 2014

Change the Weather History Date:

Saturday, February 22, 2014

  Actual Average Record
Temperature  
Mean Temperature 17 °F 30 °F  
Max Temperature 21 °F 42 °F 64 °F (1958)
Min Temperature 13 °F 19 °F -13 °F (2015)
Degree Days  
Heating Degree Days 48 35  
Month to date heating degree days 983 801  
Since 1 July heating degree days 4928 5142  
Cooling Degree Days 0 0  
Month to date cooling degree days 0  
Year to date cooling degree days 0  
Moisture  
Dew Point 10 °F    
Average Humidity 75    
Maximum Humidity 88    
Minimum Humidity 61    
Precipitation  
Precipitation 0.02 in 0.02 in 0.28 in (1996)
Month to date precipitation 0.25 0.38  
Year to date precipitation 0.66 0.87  
Sea Level Pressure  
Sea Level Pressure 30.04 in    
Wind  
Wind Speed 10 mph (North)    
Max Wind Speed 18 mph    
Max Gust Speed 22 mph    
Visibility 4 miles    
Events Snow    
T = Trace of Precipitation, MM = Missing Value Source: NWS Daily Summary

Daily Weather History Graph

Daily Weather History Graph

Search for Another Location

Airport or City:

Trip Planner

Search our weather history database for the weather conditions in past years. The results will help you decide how hot, cold, wet, or windy it might be!

Date:

Astronomy

Feb. 22, 2014 Rise Set
Actual Time 7:12 AM MST 5:58 PM MST
Civil Twilight 6:42 AM MST 6:28 PM MST
Nautical Twilight 6:07 AM MST 7:03 PM MST
Astronomical Twilight 5:33 AM MST 7:37 PM MST
Moon 1:18 AM MST (2/22) 11:04 AM MST (2/22)
Length of Visible Light 11h 46m
Length of Day
10h 46m
Waning Gibbous, 49% of the Moon is Illuminated
Feb 22
Waning Gibbous
Mar 1
New
Mar 8
First Quarter
Mar 16
Full
Mar 23
Last Quarter

Hourly Weather History & Observations

Time (MST) Temp. Windchill Dew Point Humidity Pressure Visibility Wind Dir Wind Speed Gust Speed Precip Events Conditions
12:09 AM 19.9 °F 7.9 °F 15.1 °F 81% 29.89 in 1.2 mi NW 11.5 mph - 0.00 in Snow Light Snow
12:50 AM 19.4 °F 7.9 °F 15.8 °F 86% 29.90 in 3.0 mi NW 10.4 mph - 0.00 in Snow Light Snow
12:51 AM 19.9 °F 7.9 °F 15.1 °F 81% 30.02 in 3.0 mi NW 11.5 mph - 0.00 in Snow Light Snow
1:06 AM 19.9 °F 9.3 °F 15.1 °F 81% 29.90 in 1.8 mi NW 9.2 mph - 0.00 in Snow Light Snow
1:53 AM 18.0 °F 5.4 °F 14.0 °F 84% 30.05 in 1.8 mi NW 11.5 mph - 0.01 in Snow Light Snow
2:19 AM 18.0 °F 2.6 °F 12.9 °F 81% 29.91 in 2.0 mi NNW 17.3 mph - 0.00 in Snow Light Snow
2:53 AM 17.1 °F 3.0 °F 10.9 °F 77% 30.06 in 2.0 mi NW 13.8 mph - 0.00 in Snow Light Snow
3:02 AM 17.1 °F 3.6 °F 10.9 °F 77% 29.92 in 1.5 mi WNW 12.7 mph - 0.00 in Snow Light Snow
3:13 AM 16.0 °F 2.9 °F 10.9 °F 81% 29.92 in 1.0 mi NW 11.5 mph - 0.00 in Snow Light Snow
3:25 AM 16.0 °F 2.3 °F 10.0 °F 77% 29.92 in 1.5 mi NW 12.7 mph - 0.00 in Snow Light Snow
3:53 AM 15.1 °F 0.5 °F 9.0 °F 77% 30.08 in 1.5 mi NW 13.8 mph - 0.00 in Snow Light Snow
4:20 AM 15.1 °F 1.1 °F 8.1 °F 74% 29.93 in 2.0 mi NW 12.7 mph - 0.00 in Snow Light Snow
4:37 AM 15.1 °F 0.5 °F 7.0 °F 70% 29.93 in 4.0 mi NW 13.8 mph - 0.00 in Snow Light Snow
4:53 AM 15.1 °F 1.1 °F 7.0 °F 70% 30.09 in 6.0 mi NW 12.7 mph - 0.00 in Snow Light Snow
5:53 AM 14.0 °F -0.8 °F 5.0 °F 67% 30.12 in 10.0 mi WNW 13.8 mph - 0.00 in   Overcast
6:53 AM 12.9 °F 0.7 °F 3.9 °F 67% 30.13 in 10.0 mi WSW 9.2 mph - N/A   Overcast
7:53 AM 14.0 °F 1.2 °F 3.9 °F 64% 30.15 in 10.0 mi West 10.4 mph - N/A   Overcast
8:53 AM 14.0 °F 1.2 °F 3.9 °F 64% 30.16 in 10.0 mi West 10.4 mph - N/A   Mostly Cloudy
9:53 AM 14.0 °F 3.9 °F 5.0 °F 67% 30.17 in 10.0 mi West 6.9 mph - N/A   Partly Cloudy
10:53 AM 16.0 °F 5.3 °F 5.0 °F 62% 30.16 in 10.0 mi WNW 8.1 mph - N/A   Clear
11:53 AM 17.1 °F 10.0 °F 7.0 °F 65% 30.16 in 10.0 mi WNW 4.6 mph - N/A   Mostly Cloudy
12:53 PM 17.1 °F 10.0 °F 8.1 °F 68% 30.14 in 10.0 mi SW 4.6 mph - N/A   Overcast
1:53 PM 19.0 °F 12.3 °F 8.1 °F 62% 30.12 in 10.0 mi SW 4.6 mph - N/A   Mostly Cloudy
2:53 PM 19.9 °F 13.4 °F 8.1 °F 60% 30.11 in 10.0 mi Variable 4.6 mph - N/A   Overcast
3:53 PM 19.9 °F 13.4 °F 8.1 °F 60% 30.12 in 10.0 mi SW 4.6 mph - N/A   Overcast
4:53 PM 19.9 °F 12.1 °F 9.0 °F 62% 30.12 in 10.0 mi SSW 5.8 mph - N/A   Overcast
5:53 PM 18.0 °F 7.7 °F 12.0 °F 78% 30.15 in 7.0 mi South 8.1 mph - 0.00 in Snow Light Snow
6:43 PM 18.0 °F 6.9 °F 12.9 °F 81% 29.97 in 2.5 mi East 9.2 mph - 0.00 in Snow Light Snow
6:51 PM 17.6 °F 5.0 °F 12.2 °F 79% 29.98 in 1.5 mi East 11.5 mph - 0.00 in Snow Light Snow
6:53 PM 18.0 °F 6.9 °F 12.9 °F 81% 30.17 in 1.2 mi East 9.2 mph - 0.00 in Snow Light Snow
6:59 PM 17.1 °F 5.0 °F 12.9 °F 84% 29.98 in 1.0 mi ENE 10.4 mph - 0.00 in Snow Light Snow
7:13 PM 17.1 °F 5.8 °F 12.9 °F 84% 29.98 in 1.2 mi East 9.2 mph - 0.00 in Snow Light Snow
7:34 PM 17.1 °F 5.0 °F 12.0 °F 81% 29.98 in 1.2 mi East 10.4 mph - 0.00 in Snow Light Snow
7:53 PM 17.1 °F 4.3 °F 12.0 °F 81% 30.17 in 1.5 mi East 11.5 mph - 0.01 in Snow Light Snow
8:32 PM 16.0 °F 2.9 °F 12.9 °F 88% 29.98 in 1.5 mi East 11.5 mph - 0.00 in Snow Light Snow
8:39 PM 17.1 °F 3.0 °F 12.0 °F 81% 29.98 in 2.0 mi East 13.8 mph - 0.00 in Snow Light Snow
8:50 PM 17.6 °F 3.7 °F 12.2 °F 79% 29.98 in 3.0 mi East 13.8 mph - 0.00 in Snow Light Snow
8:53 PM 16.0 °F 1.7 °F 12.0 °F 84% 30.19 in 3.0 mi East 13.8 mph - 0.00 in Snow Light Snow
9:07 PM 16.0 °F 1.7 °F 12.0 °F 84% 29.98 in 2.0 mi East 13.8 mph - 0.00 in Snow Light Snow
9:15 PM 16.0 °F -0.4 °F 10.9 °F 81% 29.98 in 1.2 mi East 18.4 mph - 0.00 in Snow Light Snow
9:35 PM 16.0 °F 1.1 °F 12.0 °F 84% 29.99 in 2.0 mi East 15.0 mph - 0.00 in Snow Light Snow
9:53 PM 15.1 °F -0.6 °F 10.9 °F 84% 30.19 in 2.0 mi East 16.1 mph - 0.00 in Snow Light Snow
10:18 PM 15.1 °F 0.5 °F 10.9 °F 84% 29.99 in 1.8 mi East 13.8 mph - 0.00 in Snow Light Snow
10:25 PM 15.1 °F 0.5 °F 10.9 °F 84% 29.99 in 1.8 mi East 13.8 mph - 0.00 in Snow Light Snow
10:36 PM 15.1 °F 0.5 °F 10.0 °F 80% 29.99 in 2.0 mi East 13.8 mph - 0.00 in Snow Light Snow
10:53 PM 15.1 °F -0.1 °F 10.0 °F 80% 30.18 in 2.5 mi East 15.0 mph - 0.00 in Snow Light Snow
11:11 PM 15.1 °F 0.5 °F 10.0 °F 80% 29.98 in 1.8 mi East 13.8 mph - 0.00 in Snow Light Snow
11:53 PM 15.1 °F 1.1 °F 10.0 °F 80% 30.18 in 2.0 mi East 12.7 mph - 0.00 in Snow Light Snow